{"data":{"norad_id":66532,"epoch":"2026-05-25T04:55:39.038016Z","epoch_age_seconds":56693,"freshness":"FRESH","line1":"1 66532U 25265S   26145.20531294  .00014933  00000+0  55058-3 0  9991","line2":"2 66532  42.9996 205.9784 0001436 269.7399  90.3288 15.27609756 28814","mean_motion":15.27609756,"eccentricity":0.0001436,"inclination_deg":42.9996,"raan_deg":205.9784,"arg_perigee_deg":269.7399,"mean_anomaly_deg":90.3288,"bstar":0.00055058,"rev_number":2881,"period_min":94.26491251081,"perigee_km":481.97474378848,"apogee_km":483.94525084611,"semimajor_km":6861.0969973173,"source":"CELESTRAK","updated_at":"2026-05-25T13:38:21.252656Z"}}